COSMOS 252 DEB, 19309

Orbit data source: Space-Track

COSMOS 252 DEB, 19309 is space debris in LEO originally from a launch on Fri, 01 Nov 1968 UTC launched from the Tyuratam Missile And Space Complex (TTMTR). Debris objects in space refer to the collection of defunct objects orbiting the Earth. Examples of debris include non-operational satellites, rocket bodies, and fragments generated from explosions, collisions, or faulty payload assembly.

Loading next visibility...
Identifier
19309, 1968-097ES
Orbit
LEO
Country
Flag of CISCIS
Related business
Manufacturer
Unknown
Mission
Spacecraft
Bus & Motor
Unknown
Mass
Unknown
Launch date (UTC)
1968-11-01 (58 years ago)
Launch vehicle
Unknown
Launch site
Tyuratam Missile And Space Complex (TTMTR)
Object type
Payload
Rocket body
Debris
Shape & HBR
Unknown shape, 0.1 m
Radar Cross Section
Medium (>0.1 m² and <1 m²)

Expand to show TLE details & history
Last TLE update: 1 day ago

TLE from 1 day ago
0 COSMOS 252 DEB
1 19309U 68097ES  26219.32544271 -.00000021  00000-0  37687-4 0  9999
2 19309  62.3806 188.9491 0885555 279.4472  70.7610 13.04577621677883
Epoch: 2026-08-07T07:48Z
TLE epoch observation values (Epoch: 2026-08-07T07:48:38.250Z)
Latitude
0.00002°
Longitude
115.93698°
Altitude
1,078.88 km
Speed
7.393 km/s
True Right ascension
12h 35m 47s
True Declination
0° 00' 00"
Sunlit
Object was in daylight at epoch
Visualization orbit readout
Latitude
Unknown
Longitude
Unknown
Altitude
Unknown
Speed
Unknown
Apparent Right ascension
Unknown
Apparent Declination
Unknown
Sunlit
N/A
Visualization observer readout
Local Sidereal Time
23:42:55
Azimuth
Unknown
Elevation
Unknown
Doppler factor
Unknown
Orbital elements
Apogee altitude
1,918.083 km
Perigee altitude
568.265 km
Semi-major axis
7,621.311 km
Eccentricity
0.08856
Inclination
62.3806°
RAAN
188.9491°
Arg. of periapsis
279.4472°
True anomaly
80.6545°
Mean anomaly
70.761°
Eccentric anomaly
75.67715°
Mean motion
3.26211 °/min
Orbital period
110.36 mins
BSTAR
0.000037687
Loading maneuver chart data...
Computing Atmospheric mass density...

Documentation

Showing up to 5 results
|